Saturna Island,

1:32 AM PDT on May 27, 2017 (GMT -0700)
Saturna Island

Weather History for CWEZ - February, 2013

Change the Weather History Date:

Monday, February 25, 2013

  Actual Average Record
Temperature  
Mean Temperature 47 °F -  
Max Temperature 52 °F - - ()
Min Temperature 42 °F - - ()
Degree Days  
Heating Degree Days 18    
Moisture  
Dew Point 35 °F    
Average Humidity 70    
Maximum Humidity 89    
Minimum Humidity 45    
Precipitation  
Precipitation 0.03 in - - ()
Sea Level Pressure  
Sea Level Pressure 29.97 in    
Wind  
Wind Speed 19 mph ()    
Max Wind Speed 43 mph    
Max Gust Speed 54 mph    
T = Trace of Precipitation, MM = Missing Value Source: Averaged Metar Reports

Daily Weather History Graph

Daily Weather History Graph

Search for Another Location

Airport or City:

Trip Planner

Search our weather history database for the weather conditions in past years. The results will help you decide how hot, cold, wet, or windy it might be!

Date:

Astronomy

Feb. 25, 2013 Rise Set
Actual Time 7:01 AM PST 5:50 PM PST
Civil Twilight 6:29 AM PST 6:21 PM PST
Nautical Twilight 5:52 AM PST 6:58 PM PST
Astronomical Twilight 5:16 AM PST 7:34 PM PST
Moon 6:15 PM PST (2/25) 6:30 AM PST (2/25)
Length of Visible Light 11h 52m
Length of Day
10h 48m
Full, 100% of the Moon is Illuminated
Feb 25
Full
Feb 25
Full
Mar 4
Last Quarter
Mar 11
New
Mar 19
First Quarter

Hourly Weather History & Observations

Time (PST) Temp. Windchill Dew Point Humidity Pressure Visibility Wind Dir Wind Speed Gust Speed Precip Events Conditions
12:00 AM 44.2 °F 33.6 °F 37.4 °F 77% 29.82 in - South 34.5 mph 41.4 mph N/A   Unknown
1:00 AM 43.3 °F 33.0 °F 38.3 °F 82% 29.81 in - SSW 29.9 mph 35.7 mph N/A   Unknown
2:00 AM 42.1 °F 30.6 °F 39.0 °F 89% 29.81 in - SSW 34.5 mph - 0.03 in   Unknown
3:00 AM 42.4 °F 31.8 °F 39.2 °F 88% 29.78 in - SSW 29.9 mph - N/A   Unknown
4:00 AM 43 °F - 38 °F 78% 29.77 in - SW 31.1 mph - -  
4:00 AM 42.8 °F 32.1 °F 38.5 °F 85% 29.77 in - SW 31.1 mph 38.0 mph N/A   Unknown
5:00 AM 42.8 °F 31.9 °F 38.5 °F 85% 29.80 in - SW 32.2 mph - N/A   Unknown
6:00 AM 43.0 °F 31.8 °F 37.9 °F 82% 29.81 in - SW 34.5 mph - N/A   Unknown
7:00 AM 42.4 °F 30.5 °F 37.6 °F 83% 29.79 in - SW 39.1 mph 48.3 mph N/A   Unknown
8:00 AM 43.5 °F 31.6 °F 38.1 °F 81% 29.78 in - SW 42.6 mph 54.1 mph N/A   Unknown
9:00 AM 44.2 °F 37.6 °F 34.9 °F 70% 29.83 in - West 13.8 mph 29.9 mph N/A   Unknown
10:00 AM 44 °F - 37 °F 68% 29.89 in - West 5.8 mph - -  
10:00 AM 43.9 °F 40.5 °F 37.0 °F 77% 29.89 in - West 5.8 mph - N/A   Unknown
11:00 AM 45.1 °F 40.8 °F 35.4 °F 69% 29.92 in - West 8.1 mph 20.7 mph N/A   Unknown
12:00 PM 48.7 °F - 34.7 °F 58% 29.95 in - West 5.8 mph - N/A   Unknown
1:00 PM 51.1 °F - 30.4 °F 45% 29.98 in - West 9.2 mph 20.7 mph N/A   Unknown
2:00 PM 50.2 °F - 30.2 °F 46% 30.01 in - WNW 5.8 mph - N/A   Unknown
3:00 PM 47.1 °F - 37.4 °F 69% 30.04 in - NW 2.3 mph - N/A   Unknown
4:00 PM 46 °F - 37 °F 62% 30.07 in - WNW 1.2 mph - -  
4:00 PM 46.2 °F - 37.2 °F 71% 30.07 in - WNW 1.2 mph - N/A   Unknown
5:00 PM 45.3 °F - 35.6 °F 69% 30.10 in - WNW 1.2 mph - N/A   Unknown
6:00 PM 45.0 °F 43.5 °F 33.4 °F 64% 30.12 in - West 3.5 mph - N/A   Unknown
7:00 PM 44.8 °F 42.4 °F 31.5 °F 60% 30.15 in - West 4.6 mph - N/A   Unknown
8:00 PM 44.1 °F 41.5 °F 31.5 °F 61% 30.17 in - West 4.6 mph - N/A   Unknown
9:00 PM 44.1 °F - 30.4 °F 59% 30.21 in - WSW 1.2 mph - N/A   Unknown
10:00 PM 44 °F - 33 °F 55% 30.23 in - WNW 3.5 mph - -  
10:00 PM 43.7 °F 42.1 °F 33.1 °F 66% 30.23 in - WNW 3.5 mph - N/A   Unknown
11:00 PM 42.3 °F 39.4 °F 31.8 °F 67% 30.25 in - West 4.6 mph - N/A   Unknown